Flag for Turkey Weather past 2 weeks in Istanbul, Turkey

Now
81 °F

Passing clouds.


Feels Like: 82 °F
Forecast: 71 / 81 °F
Wind: 7 mph from Southwest

Location: Istanbul Ataturk Airport

Current Time: Jul 12, 2014 at 11:28:26 AM

Latest Report: Jul 12, 2014 at 10:50 AM


Visibility: N/A

Pressure: 29.74 "Hg

Humidity: 58%

Dew point: 64 °F

Location of IstanbulLocation

Historic Weather in Istanbul — Graph

°F

Istanbul temperature yesterday

Maximum temperature yesterday: 90 °F (at 1:50 PM)
Minimum temperature yesterday: 73 °F (at 5:20 AM)
Average temperature yesterday: 82 °F

Past Weeks' High & Low Weather Summary

 TemperatureHumidityPressure
High90 °F (Jul 11, 1:50 PM)88% (Jul 1, 2:50 AM)30.15 "Hg (Jul 1, 2:50 AM)
Low64 °F (Jul 1, 3:20 AM)29% (Jul 11, 1:50 PM)29.59 "Hg (Jul 11, 1:50 PM)
Average76 °F62%29.93 "Hg
* Reported Jun 27 10:20 AM — Jul 12 10:20 AM, Istanbul, Weather by CustomWeather, © 2014

Note: Actual official high and low records may vary slightly from our data, if they occured in-between our weather recording intervals... More about our weather records

Advertising

Istanbul weather history for previous 24 hours

 ConditionsComfort  
Time TempWeatherWind HumidityBarometerVisibility
10:20 AM
Jul 12
81 °FPassing clouds.7 mph62%29.74 "HgN/A
9:50 AM81 °FPassing clouds.7 mph62%29.74 "HgN/A
9:20 AM81 °FPassing clouds.6 mph54%29.74 "HgN/A
8:50 AM79 °FPassing clouds.6 mph65%29.74 "HgN/A
8:20 AM79 °FPassing clouds.5 mph65%29.74 "HgN/A
7:50 AM79 °FSunny.6 mph61%29.71 "Hg10 mi
7:20 AM77 °FPassing clouds.5 mph65%29.71 "HgN/A
6:50 AM77 °FPassing clouds.5 mph69%29.71 "HgN/A
6:20 AM75 °FPassing clouds.2 mph69%29.71 "HgN/A
5:50 AM75 °FPassing clouds.5 mph61%29.71 "HgN/A
5:20 AM75 °FPassing clouds.5 mph65%29.71 "HgN/A
4:50 AM75 °FClear.7 mph65%29.71 "Hg10 mi
4:20 AM77 °FClear.7 mph61%29.71 "Hg10 mi
3:50 AM77 °FClear.2 mph69%29.71 "Hg10 mi
3:20 AM79 °FPassing clouds.5 mph65%29.71 "HgN/A
2:50 AM77 °FClear.7 mph69%29.71 "Hg10 mi
2:20 AM79 °FPassing clouds.5 mph61%29.71 "HgN/A
1:50 AM79 °FPassing clouds.5 mph65%29.71 "HgN/A
1:20 AM79 °FPassing clouds.7 mph65%29.71 "HgN/A
12:50 AM79 °FClear.7 mph65%29.71 "Hg10 mi
12:20 AM79 °FPassing clouds.6 mph70%29.71 "HgN/A
11:50 PM
Jul 11
79 °FClear.7 mph70%29.68 "Hg10 mi
11:20 PM79 °FClear.8 mph65%29.68 "Hg10 mi
10:50 PM79 °FPassing clouds.3 mph70%29.68 "HgN/A
10:20 PM79 °FClear.6 mph65%29.68 "Hg10 mi
9:50 PM79 °FClear.6 mph70%29.68 "Hg10 mi
9:20 PM81 °FPassing clouds.5 mph58%29.65 "HgN/A
8:50 PM86 °FPassing clouds.8 mph33%29.65 "HgN/A
8:20 PM86 °FPassing clouds.10 mph31%29.62 "HgN/A
7:50 PM88 °FPassing clouds.13 mph29%29.62 "HgN/A
7:20 PM86 °FSunny.10 mph43%29.62 "Hg10 mi
6:50 PM84 °FSunny.8 mph55%29.59 "Hg10 mi
6:20 PM86 °FSunny.10 mph49%29.59 "Hg10 mi
5:50 PM86 °FSunny.10 mph52%29.59 "Hg10 mi
5:20 PM84 °FSunny.9 mph51%29.59 "Hg10 mi
4:50 PM86 °FPassing clouds.9 mph49%29.59 "HgN/A
4:20 PM88 °FSunny.10 mph38%29.59 "Hg10 mi
3:50 PM90 °FPassing clouds.10 mph33%29.59 "HgN/A
3:20 PM90 °FSunny.9 mph31%29.59 "Hg10 mi
2:50 PM90 °FSunny.9 mph29%29.59 "Hg10 mi
2:20 PM90 °FPassing clouds.9 mph29%29.59 "HgN/A
1:50 PM90 °FSunny.9 mph29%29.59 "Hg10 mi
1:20 PM88 °FPassing clouds.10 mph31%29.62 "HgN/A
12:50 PM88 °FPassing clouds.8 mph33%29.62 "HgN/A
12:20 PM86 °FPassing clouds.7 mph35%29.62 "HgN/A
11:50 AM86 °FPassing clouds.7 mph35%29.62 "HgN/A
11:20 AM88 °FPassing clouds.7 mph33%29.62 "HgN/A
Weather by CustomWeather, © 2014

See weather overviewHow to use our weather pages